User: anonymous   Login
Location: Unspecified
(0.0000°N, 0.0000°E)
Time: 02:51:29
(UTC+00:00)
Language:

deb Kosmos-2227 - Orbit

View from above orbital plane
View from above orbital plane
View from above satellite
View from above satellite

Ground track
Ground track

The orbit data is extracted from the following two-line orbital elements,

1 22332U 92093V   21054.96457618  .00015889  00000-0  11176-2 0  9992
2 22332  70.5345 253.2319 0010489  79.3218 280.9129 15.05091918479443
Epoch (UTC): 23 February 2021 23:08:59
Eccentricity: 0.0010489
inclination: 70.5345°
perigee height: 544 km
apogee height: 558 km
right ascension of ascending node: 253.2319°
argument of perigee: 79.3218°
revolutions per day: 15.05091918
mean anomaly at epoch: 280.9129°
orbit number at epoch: 47944

The dashed part of the orbit path shows where the satellite is in the earth's shadow,  

DLR